User: anonymous   Login
Location: Oshawa
(43.9000°N, 78.8670°W)
Time: 13:12:41
(UTC-04:00)
Language:

Cosmos 1408 Rocket - Orbit

View from above orbital plane
View from above orbital plane
View from above satellite
View from above satellite

Ground track
Ground track

The orbit data is extracted from the following two-line orbital elements,

1 13553U 82092B   15115.94829473  .00000761  00000-0  88343-4 0  9991
2 13553 082.5693 243.6819 0022978 111.5425 027.8436 14.83871438760877
Epoch (UTC): 25 April 2015 22:45:32
Eccentricity: 0.0022978
inclination: 82.5693°
perigee height: 601 km
apogee height: 633 km
right ascension of ascending node: 243.6819°
argument of perigee: 111.5425°
revolutions per day: 14.83871438
mean anomaly at epoch: 27.8436°
orbit number at epoch: 76087

The dashed part of the orbit path shows where the satellite is in the earth's shadow,  

DLR